contact:dominique.lefevre@mio.osupytheas.fr, maurice.libes@osupytheas.fr, didier.mallarino@osupytheas.fr
Project:EMSO http://www.emso-fr.org/EMSO-France
Depth: 2436.0 m
Title:EMSO Ligure Ouest : Data MII capteur CSTAR
DateTime,Latitude,Longitude,Instrument_Serial,Reference_Counts,Signal_Counts,Corrected_Signal_raw_counts,Calculated_Beam_c_inverse_meters,Internal_thermistor_counts
DateTime,Latitude,Longitude,Instrument_Serial,Reference_Counts,Signal_Counts,Corrected_Signal_raw_counts,Calculated_Beam_c_inverse_meters,Internal_thermistor_counts
2022-05-09T00:02:52,42.805,6.029,CST-1368DR,4760,5471,12256,0.969,551
2022-05-09T00:05:54,42.805,6.029,CST-1368DR,4760,5468,12248,0.972,551
2022-05-09T00:08:55,42.805,6.029,CST-1368DR,4760,5473,12260,0.968,551
2022-05-09T00:11:57,42.805,6.029,CST-1368DR,4760,5468,12249,0.971,551
2022-05-09T00:14:58,42.805,6.029,CST-1368DR,4760,5467,12247,0.972,551
2022-05-09T00:18:00,42.805,6.029,CST-1368DR,4760,5473,12261,0.967,551
2022-05-09T00:21:02,42.805,6.029,CST-1368DR,4760,5467,12248,0.972,551
2022-05-09T00:24:03,42.805,6.029,CST-1368DR,4760,5467,12248,0.972,551
2022-05-09T00:27:05,42.805,6.029,CST-1368DR,4760,5482,12281,0.961,551
2022-05-09T00:30:06,42.805,6.029,CST-1368DR,4760,5466,12244,0.973,551
2022-05-09T00:33:08,42.805,6.029,CST-1368DR,4760,5478,12272,0.964,551
2022-05-09T00:36:09,42.805,6.029,CST-1368DR,4760,5476,12267,0.966,551
2022-05-09T00:39:11,42.805,6.029,CST-1368DR,4760,5471,12255,0.969,551
2022-05-09T00:42:13,42.805,6.029,CST-1368DR,4760,5472,12257,0.969,551
2022-05-09T00:45:14,42.805,6.029,CST-1368DR,4760,5476,12268,0.965,551
2022-05-09T00:48:16,42.805,6.029,CST-1368DR,4760,5471,12256,0.969,551
2022-05-09T00:51:17,42.805,6.029,CST-1368DR,4760,5472,12259,0.968,551
2022-05-09T00:54:19,42.805,6.029,CST-1368DR,4760,5478,12271,0.964,551
2022-05-09T00:57:21,42.805,6.029,CST-1368DR,4760,5471,12255,0.969,551
2022-05-09T01:00:22,42.805,6.029,CST-1368DR,4760,5477,12269,0.965,551
2022-05-09T01:03:24,42.805,6.029,CST-1368DR,4760,5468,12249,0.971,551
2022-05-09T01:06:25,42.805,6.029,CST-1368DR,4760,5478,12271,0.964,551
2022-05-09T01:09:27,42.805,6.029,CST-1368DR,4760,5482,12280,0.961,551
2022-05-09T01:12:28,42.805,6.029,CST-1368DR,4760,5476,12266,0.966,551
2022-05-09T01:15:30,42.805,6.029,CST-1368DR,4760,5473,12260,0.968,551
2022-05-09T01:18:32,42.805,6.029,CST-1368DR,4760,5475,12264,0.967,551
2022-05-09T01:21:33,42.805,6.029,CST-1368DR,4760,5475,12266,0.966,551
2022-05-09T01:24:35,42.805,6.029,CST-1368DR,4760,5471,12257,0.969,551
2022-05-09T01:27:36,42.805,6.029,CST-1368DR,4760,5475,12265,0.966,551
2022-05-09T01:30:38,42.805,6.029,CST-1368DR,4760,5469,12252,0.970,551
2022-05-09T01:33:39,42.805,6.029,CST-1368DR,4760,5475,12266,0.966,551
2022-05-09T01:36:41,42.805,6.029,CST-1368DR,4760,5476,12266,0.966,551
2022-05-09T01:39:43,42.805,6.029,CST-1368DR,4760,5469,12252,0.970,551
2022-05-09T01:42:44,42.805,6.029,CST-1368DR,4760,5472,12257,0.969,551
2022-05-09T01:45:46,42.805,6.029,CST-1368DR,4760,5470,12253,0.970,551
2022-05-09T01:48:47,42.805,6.029,CST-1368DR,4760,5469,12251,0.971,551
2022-05-09T01:51:49,42.805,6.029,CST-1368DR,4760,5462,12235,0.976,551
2022-05-09T01:54:51,42.805,6.029,CST-1368DR,4760,5469,12252,0.970,551
2022-05-09T01:57:52,42.805,6.029,CST-1368DR,4760,5471,12255,0.969,551
2022-05-09T02:00:54,42.805,6.029,CST-1368DR,4760,5474,12262,0.967,551
2022-05-09T02:03:55,42.805,6.029,CST-1368DR,4760,5471,12257,0.969,551
2022-05-09T02:06:57,42.805,6.029,CST-1368DR,4760,5467,12246,0.972,551
2022-05-09T02:09:58,42.805,6.029,CST-1368DR,4760,5472,12258,0.968,551
2022-05-09T02:13:00,42.805,6.029,CST-1368DR,4760,5465,12243,0.973,551
2022-05-09T02:16:02,42.805,6.029,CST-1368DR,4760,5470,12253,0.970,551
2022-05-09T02:19:03,42.805,6.029,CST-1368DR,4760,5473,12261,0.967,551
2022-05-09T02:22:05,42.805,6.029,CST-1368DR,4760,5467,12247,0.972,551
2022-05-09T02:25:06,42.805,6.029,CST-1368DR,4760,5469,12252,0.970,551
2022-05-09T02:28:08,42.805,6.029,CST-1368DR,4760,5473,12261,0.967,551
2022-05-09T02:31:09,42.805,6.029,CST-1368DR,4760,5476,12267,0.966,551
2022-05-09T02:34:11,42.805,6.029,CST-1368DR,4760,5474,12263,0.967,551
2022-05-09T02:37:13,42.805,6.029,CST-1368DR,4760,5472,12257,0.969,551
2022-05-09T02:40:14,42.805,6.029,CST-1368DR,4760,5471,12255,0.969,551
2022-05-09T02:43:16,42.805,6.029,CST-1368DR,4760,5472,12259,0.968,551
2022-05-09T02:46:17,42.805,6.029,CST-1368DR,4760,5476,12268,0.965,551
2022-05-09T02:49:19,42.805,6.029,CST-1368DR,4760,5468,12250,0.971,551
2022-05-09T02:52:21,42.805,6.029,CST-1368DR,4760,5463,12239,0.975,551
2022-05-09T02:55:22,42.805,6.029,CST-1368DR,4760,5460,12231,0.977,551
2022-05-09T02:58:24,42.805,6.029,CST-1368DR,4760,5474,12263,0.967,551
2022-05-09T03:01:25,42.805,6.029,CST-1368DR,4760,5470,12253,0.970,551
2022-05-09T03:04:27,42.805,6.029,CST-1368DR,4760,5469,12251,0.971,551
2022-05-09T03:07:28,42.805,6.029,CST-1368DR,4760,5469,12252,0.970,551
2022-05-09T03:10:30,42.805,6.029,CST-1368DR,4760,5468,12249,0.971,551
2022-05-09T03:13:32,42.805,6.029,CST-1368DR,4760,5474,12263,0.967,551
2022-05-09T03:16:33,42.805,6.029,CST-1368DR,4760,5469,12251,0.971,551
2022-05-09T03:19:35,42.805,6.029,CST-1368DR,4760,5469,12251,0.971,551
2022-05-09T03:22:36,42.805,6.029,CST-1368DR,4760,5470,12253,0.970,551
2022-05-09T03:25:38,42.805,6.029,CST-1368DR,4759,5468,12251,0.971,551
2022-05-09T03:28:40,42.805,6.029,CST-1368DR,4759,5467,12250,0.971,551
2022-05-09T03:31:41,42.805,6.029,CST-1368DR,4760,5470,12253,0.970,551
2022-05-09T03:34:43,42.805,6.029,CST-1368DR,4759,5474,12265,0.966,551
2022-05-09T03:37:44,42.805,6.029,CST-1368DR,4759,5469,12254,0.970,551
2022-05-09T03:40:46,42.805,6.029,CST-1368DR,4760,5475,12264,0.967,551
2022-05-09T03:43:47,42.805,6.029,CST-1368DR,4759,5470,12256,0.969,550
2022-05-09T03:46:49,42.805,6.029,CST-1368DR,4760,5474,12262,0.967,551
2022-05-09T03:49:51,42.805,6.029,CST-1368DR,4759,5475,12267,0.966,551
2022-05-09T03:52:52,42.805,6.029,CST-1368DR,4759,5473,12262,0.967,551
2022-05-09T03:55:54,42.805,6.029,CST-1368DR,4759,5471,12259,0.968,551
2022-05-09T03:58:55,42.805,6.029,CST-1368DR,4759,5469,12255,0.969,551
2022-05-09T04:01:57,42.805,6.029,CST-1368DR,4759,5469,12254,0.970,551
2022-05-09T04:04:58,42.805,6.029,CST-1368DR,4759,5466,12247,0.972,551
2022-05-09T04:08:00,42.805,6.029,CST-1368DR,4759,5471,12259,0.968,551
2022-05-09T04:11:02,42.805,6.029,CST-1368DR,4760,5473,12261,0.967,551
2022-05-09T04:14:03,42.805,6.029,CST-1368DR,4759,5468,12251,0.971,551
2022-05-09T04:17:05,42.805,6.029,CST-1368DR,4759,5464,12244,0.973,551
2022-05-09T04:20:06,42.805,6.029,CST-1368DR,4759,5466,12247,0.972,551
2022-05-09T04:23:08,42.805,6.029,CST-1368DR,4759,5466,12246,0.972,551
2022-05-09T04:26:10,42.805,6.029,CST-1368DR,4759,5465,12246,0.972,551
2022-05-09T04:29:11,42.805,6.029,CST-1368DR,4759,5468,12251,0.971,551
2022-05-09T04:32:13,42.805,6.029,CST-1368DR,4759,5461,12236,0.976,551
2022-05-09T04:35:14,42.805,6.029,CST-1368DR,4759,5466,12247,0.972,551
2022-05-09T04:38:16,42.805,6.029,CST-1368DR,4759,5465,12245,0.973,551
2022-05-09T04:41:17,42.805,6.029,CST-1368DR,4759,5466,12247,0.972,551
2022-05-09T04:44:19,42.805,6.029,CST-1368DR,4759,5465,12246,0.972,551
2022-05-09T04:47:21,42.805,6.029,CST-1368DR,4759,5466,12247,0.972,551
2022-05-09T04:50:22,42.805,6.029,CST-1368DR,4759,5469,12253,0.970,551
2022-05-09T04:53:24,42.805,6.029,CST-1368DR,4759,5467,12250,0.971,551
2022-05-09T04:56:25,42.805,6.029,CST-1368DR,4759,5467,12249,0.971,551
2022-05-09T04:59:27,42.805,6.029,CST-1368DR,4759,5476,12269,0.965,551
2022-05-09T05:02:29,42.805,6.029,CST-1368DR,4759,5470,12256,0.969,551
2022-05-09T05:05:30,42.805,6.029,CST-1368DR,4759,5471,12259,0.968,551
2022-05-09T05:08:32,42.805,6.029,CST-1368DR,4759,5465,12245,0.973,551
2022-05-09T05:11:33,42.805,6.029,CST-1368DR,4759,5464,12243,0.973,551
2022-05-09T05:14:35,42.805,6.029,CST-1368DR,4759,5473,12263,0.967,551
2022-05-09T05:17:36,42.805,6.029,CST-1368DR,4759,5467,12250,0.971,551
2022-05-09T05:20:38,42.805,6.029,CST-1368DR,4759,5467,12249,0.971,551
2022-05-09T05:23:40,42.805,6.029,CST-1368DR,4759,5467,12250,0.971,551
2022-05-09T05:26:41,42.805,6.029,CST-1368DR,4759,5467,12250,0.971,551
2022-05-09T05:29:43,42.805,6.029,CST-1368DR,4759,5466,12247,0.972,551
2022-05-09T05:32:44,42.805,6.029,CST-1368DR,4759,5471,12258,0.968,551
2022-05-09T05:35:46,42.805,6.029,CST-1368DR,4759,5467,12249,0.971,551
2022-05-09T05:38:47,42.805,6.029,CST-1368DR,4759,5469,12254,0.970,551
2022-05-09T05:41:49,42.805,6.029,CST-1368DR,4759,5468,12252,0.970,551
2022-05-09T05:44:51,42.805,6.029,CST-1368DR,4759,5469,12253,0.970,551
2022-05-09T05:47:52,42.805,6.029,CST-1368DR,4759,5466,12246,0.972,551
2022-05-09T05:50:54,42.805,6.029,CST-1368DR,4759,5467,12250,0.971,551
2022-05-09T05:53:55,42.805,6.029,CST-1368DR,4759,5468,12251,0.971,551
2022-05-09T05:56:57,42.805,6.029,CST-1368DR,4759,5468,12251,0.971,551
2022-05-09T05:59:59,42.805,6.029,CST-1368DR,4759,5465,12244,0.973,551
2022-05-09T06:03:00,42.805,6.029,CST-1368DR,4759,5467,12250,0.971,551
2022-05-09T06:06:02,42.805,6.029,CST-1368DR,4759,5468,12252,0.970,551
2022-05-09T06:09:03,42.805,6.029,CST-1368DR,4759,5465,12245,0.973,551
2022-05-09T06:12:05,42.805,6.029,CST-1368DR,4759,5476,12269,0.965,551
2022-05-09T06:15:06,42.805,6.029,CST-1368DR,4759,5469,12254,0.970,551
2022-05-09T06:18:08,42.805,6.029,CST-1368DR,4759,5474,12265,0.966,551
2022-05-09T06:21:10,42.805,6.029,CST-1368DR,4759,5475,12267,0.966,551
2022-05-09T06:24:11,42.805,6.029,CST-1368DR,4759,5470,12256,0.969,551
2022-05-09T06:27:13,42.805,6.029,CST-1368DR,4759,5467,12250,0.971,551
2022-05-09T06:30:14,42.805,6.029,CST-1368DR,4759,5473,12263,0.967,551
2022-05-09T06:33:16,42.805,6.029,CST-1368DR,4759,5473,12264,0.967,551
2022-05-09T06:36:17,42.805,6.029,CST-1368DR,4759,5471,12259,0.968,551
2022-05-09T06:39:19,42.805,6.029,CST-1368DR,4759,5469,12254,0.970,551
2022-05-09T06:42:21,42.805,6.029,CST-1368DR,4759,5473,12262,0.967,551
2022-05-09T06:45:22,42.805,6.029,CST-1368DR,4759,5472,12261,0.967,551
2022-05-09T06:48:24,42.805,6.029,CST-1368DR,4759,5473,12262,0.967,551
2022-05-09T06:51:25,42.805,6.029,CST-1368DR,4759,5470,12256,0.969,551
2022-05-09T06:54:27,42.805,6.029,CST-1368DR,4759,5470,12256,0.969,551
2022-05-09T06:57:29,42.805,6.029,CST-1368DR,4759,5474,12265,0.966,551
2022-05-09T07:00:30,42.805,6.029,CST-1368DR,4759,5469,12254,0.970,551
2022-05-09T07:03:32,42.805,6.029,CST-1368DR,4759,5471,12258,0.968,551
2022-05-09T07:06:33,42.805,6.029,CST-1368DR,4759,5474,12266,0.966,551
2022-05-09T07:09:35,42.805,6.029,CST-1368DR,4759,5470,12255,0.969,551
2022-05-09T07:12:36,42.805,6.029,CST-1368DR,4759,5472,12261,0.967,551
2022-05-09T07:15:38,42.805,6.029,CST-1368DR,4759,5473,12263,0.967,551
2022-05-09T07:18:40,42.805,6.029,CST-1368DR,4759,5473,12263,0.967,551
2022-05-09T07:21:41,42.805,6.029,CST-1368DR,4759,5463,12241,0.974,551
2022-05-09T07:24:43,42.805,6.029,CST-1368DR,4759,5469,12254,0.970,551
2022-05-09T07:27:44,42.805,6.029,CST-1368DR,4759,5470,12256,0.969,551
2022-05-09T07:30:46,42.805,6.029,CST-1368DR,4759,5472,12261,0.967,551
2022-05-09T07:33:47,42.805,6.029,CST-1368DR,4759,5471,12259,0.968,551
2022-05-09T07:36:49,42.805,6.029,CST-1368DR,4759,5470,12256,0.969,551
2022-05-09T07:39:51,42.805,6.029,CST-1368DR,4759,5471,12259,0.968,551
2022-05-09T07:42:52,42.805,6.029,CST-1368DR,4759,5469,12254,0.970,551
2022-05-09T07:45:54,42.805,6.029,CST-1368DR,4759,5466,12246,0.972,551
2022-05-09T07:48:55,42.805,6.029,CST-1368DR,4759,5466,12247,0.972,551
2022-05-09T07:51:57,42.805,6.029,CST-1368DR,4759,5466,12247,0.972,551
2022-05-09T07:54:59,42.805,6.029,CST-1368DR,4759,5469,12254,0.970,551
2022-05-09T07:58:00,42.805,6.029,CST-1368DR,4759,5463,12241,0.974,551
2022-05-09T08:01:02,42.805,6.029,CST-1368DR,4759,5467,12250,0.971,551
2022-05-09T08:04:03,42.805,6.029,CST-1368DR,4759,5467,12250,0.971,551
2022-05-09T08:07:05,42.805,6.029,CST-1368DR,4759,5465,12245,0.973,551
2022-05-09T08:10:06,42.805,6.029,CST-1368DR,4759,5469,12255,0.969,551
2022-05-09T08:13:08,42.805,6.029,CST-1368DR,4759,5467,12249,0.971,551
2022-05-09T08:16:10,42.805,6.029,CST-1368DR,4759,5469,12255,0.969,551
2022-05-09T08:19:11,42.805,6.029,CST-1368DR,4759,5467,12249,0.971,551
2022-05-09T08:22:13,42.805,6.029,CST-1368DR,4759,5471,12259,0.968,551
2022-05-09T08:25:14,42.805,6.029,CST-1368DR,4759,5473,12263,0.967,551
2022-05-09T08:28:16,42.805,6.029,CST-1368DR,4759,5472,12260,0.968,551
2022-05-09T08:31:18,42.805,6.029,CST-1368DR,4759,5476,12269,0.965,551
2022-05-09T08:34:19,42.805,6.029,CST-1368DR,4759,5470,12255,0.969,551
2022-05-09T08:37:21,42.805,6.029,CST-1368DR,4759,5469,12255,0.969,551
2022-05-09T08:40:22,42.805,6.029,CST-1368DR,4759,5471,12259,0.968,551
2022-05-09T08:43:24,42.805,6.029,CST-1368DR,4759,5468,12251,0.971,551
2022-05-09T08:46:25,42.805,6.029,CST-1368DR,4759,5467,12250,0.971,551
2022-05-09T08:49:27,42.805,6.029,CST-1368DR,4759,5468,12252,0.970,551
2022-05-09T08:52:29,42.805,6.029,CST-1368DR,4759,5467,12249,0.971,551
2022-05-09T08:55:30,42.805,6.029,CST-1368DR,4759,5465,12245,0.973,551
2022-05-09T08:58:32,42.805,6.029,CST-1368DR,4759,5465,12245,0.973,551
2022-05-09T09:01:33,42.805,6.029,CST-1368DR,4759,5466,12246,0.972,551
2022-05-09T09:04:35,42.805,6.029,CST-1368DR,4759,5469,12255,0.969,551
2022-05-09T09:07:36,42.805,6.029,CST-1368DR,4759,5465,12246,0.972,551
2022-05-09T09:10:38,42.805,6.029,CST-1368DR,4759,5466,12248,0.972,551
2022-05-09T09:13:40,42.805,6.029,CST-1368DR,4759,5466,12247,0.972,551
2022-05-09T09:16:41,42.805,6.029,CST-1368DR,4759,5471,12259,0.968,551
2022-05-09T09:19:43,42.805,6.029,CST-1368DR,4759,5467,12250,0.971,551
2022-05-09T09:22:44,42.805,6.029,CST-1368DR,4759,5472,12260,0.968,549
2022-05-09T09:25:46,42.805,6.029,CST-1368DR,4759,5468,12253,0.970,551
2022-05-09T09:28:48,42.805,6.029,CST-1368DR,4759,5470,12256,0.969,551
2022-05-09T09:31:49,42.805,6.029,CST-1368DR,4759,5460,12233,0.977,551
2022-05-09T09:34:51,42.805,6.029,CST-1368DR,4759,5470,12256,0.969,551
2022-05-09T09:37:52,42.805,6.029,CST-1368DR,4759,5470,12256,0.969,551
2022-05-09T09:40:54,42.805,6.029,CST-1368DR,4759,5484,12288,0.959,551
2022-05-09T09:43:55,42.805,6.029,CST-1368DR,4759,5470,12256,0.969,551
2022-05-09T09:46:57,42.805,6.029,CST-1368DR,4759,5468,12251,0.971,551
2022-05-09T09:49:59,42.805,6.029,CST-1368DR,4759,5469,12255,0.969,551
2022-05-09T09:53:00,42.805,6.029,CST-1368DR,4759,5470,12255,0.969,551
2022-05-09T09:56:02,42.805,6.029,CST-1368DR,4759,5473,12262,0.967,551
2022-05-09T09:59:03,42.805,6.029,CST-1368DR,4759,5467,12249,0.971,551
2022-05-09T10:02:05,42.805,6.029,CST-1368DR,4759,5468,12252,0.970,551
2022-05-09T10:05:06,42.805,6.029,CST-1368DR,4759,5468,12251,0.971,551
2022-05-09T10:08:08,42.805,6.029,CST-1368DR,4759,5466,12247,0.972,551
2022-05-09T10:11:10,42.805,6.029,CST-1368DR,4759,5471,12259,0.968,551
2022-05-09T10:14:11,42.805,6.029,CST-1368DR,4759,5470,12256,0.969,551
2022-05-09T10:17:13,42.805,6.029,CST-1368DR,4759,5469,12253,0.970,551
2022-05-09T10:20:14,42.805,6.029,CST-1368DR,4759,5470,12256,0.969,551
2022-05-09T10:23:16,42.805,6.029,CST-1368DR,4759,5471,12258,0.968,551
2022-05-09T10:26:18,42.805,6.029,CST-1368DR,4759,5471,12258,0.968,551
2022-05-09T10:29:19,42.805,6.029,CST-1368DR,4759,5468,12251,0.971,551
2022-05-09T10:32:21,42.805,6.029,CST-1368DR,4759,5468,12252,0.970,551
2022-05-09T10:35:22,42.805,6.029,CST-1368DR,4759,5471,12258,0.968,551
2022-05-09T10:38:24,42.805,6.029,CST-1368DR,4759,5478,12273,0.964,551
2022-05-09T10:41:25,42.805,6.029,CST-1368DR,4759,5465,12245,0.973,551
2022-05-09T10:44:27,42.805,6.029,CST-1368DR,4759,5466,12247,0.972,551
2022-05-09T10:47:29,42.805,6.029,CST-1368DR,4759,5468,12252,0.970,551
2022-05-09T10:50:30,42.805,6.029,CST-1368DR,4759,5472,12260,0.968,551
2022-05-09T10:53:32,42.805,6.029,CST-1368DR,4759,5471,12259,0.968,550
2022-05-09T10:56:33,42.805,6.029,CST-1368DR,4759,5466,12248,0.972,551
2022-05-09T10:59:35,42.805,6.029,CST-1368DR,4759,5467,12249,0.971,551
2022-05-09T11:02:36,42.805,6.029,CST-1368DR,4759,5469,12254,0.970,551
2022-05-09T11:05:38,42.805,6.029,CST-1368DR,4759,5466,12246,0.972,551
2022-05-09T11:08:40,42.805,6.029,CST-1368DR,4759,5465,12246,0.972,551
2022-05-09T11:11:41,42.805,6.029,CST-1368DR,4759,5468,12251,0.971,551
2022-05-09T11:14:43,42.805,6.029,CST-1368DR,4759,5469,12253,0.970,551
2022-05-09T11:17:44,42.805,6.029,CST-1368DR,4759,5468,12252,0.970,551
2022-05-09T11:20:46,42.805,6.029,CST-1368DR,4759,5464,12243,0.973,551
2022-05-09T11:23:48,42.805,6.029,CST-1368DR,4759,5462,12238,0.975,551
2022-05-09T11:26:49,42.805,6.029,CST-1368DR,4759,5464,12244,0.973,551
2022-05-09T11:29:51,42.805,6.029,CST-1368DR,4759,5464,12243,0.973,551
2022-05-09T11:32:52,42.805,6.029,CST-1368DR,4759,5465,12244,0.973,551
2022-05-09T11:35:54,42.805,6.029,CST-1368DR,4759,5465,12246,0.972,551
2022-05-09T11:38:55,42.805,6.029,CST-1368DR,4759,5465,12245,0.973,551
2022-05-09T11:41:57,42.805,6.029,CST-1368DR,4759,5473,12262,0.967,551
2022-05-09T11:44:59,42.805,6.029,CST-1368DR,4759,5468,12253,0.970,551
2022-05-09T11:48:00,42.805,6.029,CST-1368DR,4759,5467,12250,0.971,551
2022-05-09T11:51:02,42.805,6.029,CST-1368DR,4759,5481,12280,0.961,551
2022-05-09T11:54:03,42.805,6.029,CST-1368DR,4759,5469,12254,0.970,551
2022-05-09T11:57:05,42.805,6.029,CST-1368DR,4759,5466,12248,0.972,551
2022-05-09T12:00:06,42.805,6.029,CST-1368DR,4759,5467,12250,0.971,551
2022-05-09T12:03:08,42.805,6.029,CST-1368DR,4759,5470,12256,0.969,551
2022-05-09T12:06:10,42.805,6.029,CST-1368DR,4759,5468,12253,0.970,551
2022-05-09T12:09:11,42.805,6.029,CST-1368DR,4759,5466,12247,0.972,551
2022-05-09T12:12:13,42.805,6.029,CST-1368DR,4759,5464,12244,0.973,551
2022-05-09T12:15:14,42.805,6.029,CST-1368DR,4759,5466,12248,0.972,551
2022-05-09T12:18:16,42.805,6.029,CST-1368DR,4759,5466,12247,0.972,551
2022-05-09T12:21:18,42.805,6.029,CST-1368DR,4759,5469,12254,0.970,551
2022-05-09T12:24:19,42.805,6.029,CST-1368DR,4759,5468,12251,0.971,551
2022-05-09T12:27:21,42.805,6.029,CST-1368DR,4759,5466,12247,0.972,551
2022-05-09T12:30:22,42.805,6.029,CST-1368DR,4759,5476,12270,0.965,551
2022-05-09T12:33:24,42.805,6.029,CST-1368DR,4759,5467,12250,0.971,551
2022-05-09T12:36:25,42.805,6.029,CST-1368DR,4759,5466,12247,0.972,551
2022-05-09T12:39:27,42.805,6.029,CST-1368DR,4759,5467,12249,0.971,551
2022-05-09T12:42:29,42.805,6.029,CST-1368DR,4759,5463,12241,0.974,551
2022-05-09T12:45:30,42.805,6.029,CST-1368DR,4759,5467,12250,0.971,551
2022-05-09T12:48:32,42.805,6.029,CST-1368DR,4759,5467,12249,0.971,551
2022-05-09T12:51:33,42.805,6.029,CST-1368DR,4759,5469,12254,0.970,551
2022-05-09T12:54:35,42.805,6.029,CST-1368DR,4759,5464,12243,0.973,551
2022-05-09T12:57:36,42.805,6.029,CST-1368DR,4759,5465,12245,0.973,551
2022-05-09T13:00:38,42.805,6.029,CST-1368DR,4759,5466,12246,0.972,551
2022-05-09T13:03:40,42.805,6.029,CST-1368DR,4759,5464,12243,0.973,551
2022-05-09T13:06:41,42.805,6.029,CST-1368DR,4759,5469,12254,0.970,551
2022-05-09T13:09:43,42.805,6.029,CST-1368DR,4759,5467,12250,0.971,551
2022-05-09T13:12:44,42.805,6.029,CST-1368DR,4759,5471,12258,0.968,551
2022-05-09T13:15:46,42.805,6.029,CST-1368DR,4759,5469,12254,0.970,551
2022-05-09T13:18:48,42.805,6.029,CST-1368DR,4759,5466,12246,0.972,551
2022-05-09T13:21:49,42.805,6.029,CST-1368DR,4759,5467,12249,0.971,551
2022-05-09T13:24:51,42.805,6.029,CST-1368DR,4759,5468,12252,0.970,551
2022-05-09T13:27:52,42.805,6.029,CST-1368DR,4759,5464,12242,0.974,551
2022-05-09T13:30:54,42.805,6.029,CST-1368DR,4759,5467,12250,0.971,551
2022-05-09T13:33:55,42.805,6.029,CST-1368DR,4759,5477,12273,0.964,551
2022-05-09T13:36:57,42.805,6.029,CST-1368DR,4759,5469,12255,0.969,551
2022-05-09T13:39:59,42.805,6.029,CST-1368DR,4759,5464,12243,0.973,551
2022-05-09T13:43:00,42.805,6.029,CST-1368DR,4759,5466,12248,0.972,551
2022-05-09T13:46:02,42.805,6.029,CST-1368DR,4759,5467,12249,0.971,551
2022-05-09T13:49:03,42.805,6.029,CST-1368DR,4759,5468,12252,0.970,551
2022-05-09T13:52:05,42.805,6.029,CST-1368DR,4759,5465,12245,0.973,551
2022-05-09T13:55:06,42.805,6.029,CST-1368DR,4759,5469,12254,0.970,551
2022-05-09T13:58:08,42.805,6.029,CST-1368DR,4759,5466,12248,0.972,551
2022-05-09T14:01:10,42.805,6.029,CST-1368DR,4759,5465,12245,0.973,551
2022-05-09T14:04:11,42.805,6.029,CST-1368DR,4759,5460,12233,0.977,551
2022-05-09T14:07:13,42.805,6.029,CST-1368DR,4759,5465,12246,0.972,551
2022-05-09T14:10:14,42.805,6.029,CST-1368DR,4759,5463,12240,0.974,551
2022-05-09T14:13:16,42.805,6.029,CST-1368DR,4759,5464,12243,0.973,551
2022-05-09T14:16:18,42.805,6.029,CST-1368DR,4759,5466,12247,0.972,551
2022-05-09T14:19:19,42.805,6.029,CST-1368DR,4759,5468,12253,0.970,551
2022-05-09T14:22:21,42.805,6.029,CST-1368DR,4759,5469,12254,0.970,551
2022-05-09T14:25:22,42.805,6.029,CST-1368DR,4759,5467,12250,0.971,551
2022-05-09T14:28:24,42.805,6.029,CST-1368DR,4759,5468,12251,0.971,551
2022-05-09T14:31:25,42.805,6.029,CST-1368DR,4759,5472,12260,0.968,551
2022-05-09T14:34:27,42.805,6.029,CST-1368DR,4759,5479,12276,0.963,551
2022-05-09T14:37:29,42.805,6.029,CST-1368DR,4759,5465,12244,0.973,550
2022-05-09T14:40:30,42.805,6.029,CST-1368DR,4759,5459,12231,0.977,551
2022-05-09T14:43:32,42.805,6.029,CST-1368DR,4759,5476,12270,0.965,551
2022-05-09T14:46:33,42.805,6.029,CST-1368DR,4759,5475,12267,0.966,551
2022-05-09T14:49:35,42.805,6.029,CST-1368DR,4759,5472,12261,0.967,551
2022-05-09T14:52:36,42.805,6.029,CST-1368DR,4759,5472,12261,0.967,551
2022-05-09T14:55:38,42.805,6.029,CST-1368DR,4759,5466,12247,0.972,551
2022-05-09T14:58:40,42.805,6.029,CST-1368DR,4759,5466,12246,0.972,551
2022-05-09T15:01:41,42.805,6.029,CST-1368DR,4759,5468,12253,0.970,551
2022-05-09T15:04:43,42.805,6.029,CST-1368DR,4759,5460,12233,0.977,551
2022-05-09T15:07:44,42.805,6.029,CST-1368DR,4759,5469,12254,0.970,551
2022-05-09T15:10:46,42.805,6.029,CST-1368DR,4759,5463,12241,0.974,551
2022-05-09T15:13:48,42.805,6.029,CST-1368DR,4759,5463,12241,0.974,551
2022-05-09T15:16:49,42.805,6.029,CST-1368DR,4759,5468,12251,0.971,551
2022-05-09T15:19:51,42.805,6.029,CST-1368DR,4759,5471,12258,0.968,551
2022-05-09T15:22:52,42.805,6.029,CST-1368DR,4759,5471,12259,0.968,551
2022-05-09T15:25:54,42.805,6.029,CST-1368DR,4759,5472,12260,0.968,551
2022-05-09T15:28:55,42.805,6.029,CST-1368DR,4759,5465,12246,0.972,551
2022-05-09T15:31:57,42.805,6.029,CST-1368DR,4759,5464,12244,0.973,551
2022-05-09T15:34:59,42.805,6.029,CST-1368DR,4759,5466,12247,0.972,551
2022-05-09T15:38:00,42.805,6.029,CST-1368DR,4759,5473,12264,0.967,551
2022-05-09T15:41:02,42.805,6.029,CST-1368DR,4759,5471,12258,0.968,551
2022-05-09T15:44:03,42.805,6.029,CST-1368DR,4759,5470,12256,0.969,551
2022-05-09T15:47:05,42.805,6.029,CST-1368DR,4759,5466,12247,0.972,551
2022-05-09T15:50:07,42.805,6.029,CST-1368DR,4759,5464,12243,0.973,551
2022-05-09T15:53:08,42.805,6.029,CST-1368DR,4759,5436,12180,0.994,551
2022-05-09T15:56:10,42.805,6.029,CST-1368DR,4759,5445,12200,0.987,551
2022-05-09T15:59:11,42.805,6.029,CST-1368DR,4759,5443,12195,0.989,551
2022-05-09T16:02:13,42.805,6.029,CST-1368DR,4759,5441,12191,0.990,551
2022-05-09T16:05:14,42.805,6.029,CST-1368DR,4759,5440,12189,0.991,551
2022-05-09T16:08:16,42.805,6.029,CST-1368DR,4759,5444,12197,0.988,551
2022-05-09T16:11:18,42.805,6.029,CST-1368DR,4759,5444,12198,0.988,551
2022-05-09T16:14:19,42.805,6.029,CST-1368DR,4759,5445,12199,0.988,551
2022-05-09T16:17:21,42.805,6.029,CST-1368DR,4759,5441,12191,0.990,551
2022-05-09T16:20:22,42.805,6.029,CST-1368DR,4759,5444,12197,0.988,551
2022-05-09T16:23:24,42.805,6.029,CST-1368DR,4759,5444,12197,0.988,551
2022-05-09T16:26:25,42.805,6.029,CST-1368DR,4759,5450,12212,0.984,551
2022-05-09T16:29:27,42.805,6.029,CST-1368DR,4759,5449,12209,0.984,551
2022-05-09T16:32:29,42.805,6.029,CST-1368DR,4759,5452,12215,0.983,551
2022-05-09T16:35:30,42.805,6.029,CST-1368DR,4759,5445,12201,0.987,551
2022-05-09T16:38:32,42.805,6.029,CST-1368DR,4759,5445,12201,0.987,551
2022-05-09T16:41:33,42.805,6.029,CST-1368DR,4759,5444,12199,0.988,551
2022-05-09T16:44:35,42.805,6.029,CST-1368DR,4759,5453,12217,0.982,551
2022-05-09T16:47:37,42.805,6.029,CST-1368DR,4759,5446,12202,0.987,551
2022-05-09T16:50:38,42.805,6.029,CST-1368DR,4759,5433,12174,0.996,551
2022-05-09T16:53:40,42.805,6.029,CST-1368DR,4759,5448,12208,0.985,551